Hazen, ND

2:01 AM CDT on August 21, 2017 (GMT -0500)
Mercer County Regional

Weather History for KHZE - April, 2014

Change the Weather History Date:

Tuesday, April 1, 2014

  Actual Average (KN60) Record (KN60)
Temperature  
Mean Temperature 5 °F -  
Max Temperature 19 °F 41 °F 75 °F (2012)
Min Temperature -9 °F 22 °F -1 °F (2014)
Degree Days  
Heating Degree Days 60    
Moisture  
Dew Point -4 °F    
Average Humidity 64    
Maximum Humidity 78    
Minimum Humidity 38    
Precipitation  
Precipitation 0.00 in - - ()
Sea Level Pressure  
Sea Level Pressure 30.11 in    
Wind  
Wind Speed 4 mph (SW)    
Max Wind Speed 9 mph    
Max Gust Speed -    
Visibility 10 miles    
Events      
Averages and records for this station are not official NWS values.
T = Trace of Precipitation, MM = Missing Value Source: NWS Daily Summary

Daily Weather History Graph

Daily Weather History Graph

Search for Another Location

Airport or City:

Trip Planner

Search our weather history database for the weather conditions in past years. The results will help you decide how hot, cold, wet, or windy it might be!

Date:

Astronomy

Apr. 01, 2014 Rise Set
Actual Time 7:25 AM CDT 8:16 PM CDT
Civil Twilight 6:54 AM CDT 8:47 PM CDT
Nautical Twilight 6:17 AM CDT 9:24 PM CDT
Astronomical Twilight 5:38 AM CDT 10:03 PM CDT
Moon 8:21 AM CDT (4/1) 10:50 PM CDT (4/1)
Length of Visible Light 13h 52m
Length of Day
12h 50m
Waxing Crescent, 5% of the Moon is Illuminated
Apr 1
Waxing Crescent
Apr 7
First Quarter
Apr 15
Full
Apr 22
Last Quarter
Apr 29
New

Hourly Weather History & Observations

Time (CDT) Temp. Windchill Dew Point Humidity Pressure Visibility Wind Dir Wind Speed Gust Speed Precip Events Conditions
12:15 AM 8.6 °F -3.7 °F -2.2 °F 62% 30.12 in 10.0 mi North 8.1 mph - N/A   Clear
12:35 AM 8.6 °F -2.6 °F -2.2 °F 62% 30.12 in 10.0 mi North 6.9 mph - N/A   Clear
12:55 AM 8.6 °F -2.6 °F -4.0 °F 57% 30.12 in 10.0 mi North 6.9 mph - N/A   Clear
1:15 AM 8.6 °F -1.3 °F -2.2 °F 62% 30.13 in 10.0 mi NNW 5.8 mph - N/A   Clear
1:35 AM 6.8 °F -2.0 °F -4.0 °F 61% 30.13 in 10.0 mi WNW 4.6 mph - N/A   Clear
1:55 AM 3.2 °F -4.2 °F -4.0 °F 72% 30.13 in 10.0 mi NW 3.5 mph - N/A   Clear
2:15 AM 1.4 °F - -5.8 °F 72% 30.12 in 10.0 mi Calm Calm - N/A   Clear
2:35 AM -0.4 °F - -5.8 °F 78% 30.12 in 10.0 mi Calm Calm - N/A   Clear
2:55 AM -0.4 °F -8.3 °F -5.8 °F 78% 30.12 in 10.0 mi WSW 3.5 mph - N/A   Clear
3:15 AM -0.4 °F -8.3 °F -9.4 °F 66% 30.12 in 10.0 mi South 3.5 mph - N/A   Clear
3:35 AM -4.0 °F - -11.2 °F 71% 30.12 in 10.0 mi Calm Calm - N/A   Clear
3:55 AM -4.0 °F -19.0 °F -9.4 °F 78% 30.11 in 10.0 mi WSW 8.1 mph - N/A   Clear
4:15 AM -0.4 °F -15.7 °F -7.6 °F 72% 30.12 in 10.0 mi West 9.2 mph - N/A   Clear
4:35 AM -0.4 °F - -7.6 °F 72% 30.11 in 10.0 mi Calm Calm - N/A   Clear
4:55 AM -2.2 °F -12.5 °F -9.4 °F 71% 30.11 in 10.0 mi SSW 4.6 mph - N/A   Clear
5:15 AM -7.6 °F -16.5 °F -13.0 °F 77% 30.10 in 10.0 mi SW 3.5 mph - N/A   Clear
5:35 AM -4.0 °F - -9.4 °F 78% 30.09 in 10.0 mi Calm Calm - N/A   Clear
5:55 AM -5.8 °F -18.4 °F -11.2 °F 77% 30.09 in 10.0 mi WSW 5.8 mph - N/A   Partly Cloudy
6:15 AM -5.8 °F -14.5 °F -11.2 °F 77% 30.09 in 10.0 mi SSW 3.5 mph - N/A   Partly Cloudy
6:35 AM -4.0 °F -16.3 °F -9.4 °F 78% 30.09 in 10.0 mi WSW 5.8 mph - N/A   Partly Cloudy
6:55 AM -2.2 °F -14.2 °F -9.4 °F 71% 30.10 in 10.0 mi SW 5.8 mph - N/A   Clear
7:15 AM -5.8 °F -14.5 °F -11.2 °F 77% 30.10 in 10.0 mi SW 3.5 mph - N/A   Clear
7:35 AM -9.4 °F -20.9 °F -14.8 °F 77% 30.11 in 10.0 mi South 4.6 mph - N/A   Clear
7:55 AM -5.8 °F -18.4 °F -11.2 °F 77% 30.11 in 10.0 mi South 5.8 mph - N/A   Clear
8:15 AM -5.8 °F -16.7 °F -11.2 °F 77% 30.11 in 10.0 mi South 4.6 mph - N/A   Clear
8:35 AM -4.0 °F - -9.4 °F 78% 30.12 in 10.0 mi Calm Calm - N/A   Clear
8:55 AM -2.2 °F -12.5 °F -9.4 °F 71% 30.13 in 10.0 mi WSW 4.6 mph - N/A   Clear
9:15 AM -0.4 °F -14.7 °F -7.6 °F 72% 30.12 in 10.0 mi SW 8.1 mph - N/A   Clear
9:35 AM 1.4 °F -6.2 °F -5.8 °F 72% 30.12 in 10.0 mi SSW 3.5 mph - N/A   Clear
9:55 AM 1.4 °F - -5.8 °F 72% 30.12 in 10.0 mi Calm Calm - N/A   Clear
10:15 AM 1.4 °F - -4.0 °F 78% 30.12 in 10.0 mi Calm Calm - N/A   Clear
10:35 AM 3.2 °F -4.2 °F -4.0 °F 72% 30.12 in 10.0 mi SW 3.5 mph - N/A   Clear
10:55 AM 5.0 °F -4.1 °F -2.2 °F 72% 30.13 in 10.0 mi SW 4.6 mph - N/A   Clear
11:15 AM 6.8 °F -3.5 °F -2.2 °F 67% 30.13 in 10.0 mi SW 5.8 mph - N/A   Clear
11:35 AM 8.6 °F 0.1 °F -0.4 °F 67% 30.13 in 10.0 mi WSW 4.6 mph - N/A   Clear
11:55 AM 8.6 °F -1.3 °F -0.4 °F 67% 30.14 in 10.0 mi WSW 5.8 mph - N/A   Clear
12:15 PM 10.4 °F 2.2 °F -0.4 °F 62% 30.13 in 10.0 mi WSW 4.6 mph - N/A   Clear
12:35 PM 10.4 °F - -0.4 °F 62% 30.13 in 10.0 mi Calm Calm - N/A   Clear
12:55 PM 12.2 °F - -0.4 °F 57% 30.12 in 10.0 mi Calm Calm - N/A   Clear
1:15 PM 14.0 °F - -0.4 °F 53% 30.12 in 10.0 mi Calm Calm - N/A   Clear
1:35 PM 14.0 °F - -0.4 °F 53% 30.12 in 10.0 mi Calm Calm - N/A   Clear
1:55 PM 15.8 °F - -2.2 °F 45% 30.11 in 10.0 mi Calm Calm - N/A   Clear
2:15 PM 15.8 °F - -2.2 °F 45% 30.10 in 10.0 mi Calm Calm - N/A   Clear
2:35 PM 17.6 °F - -4.0 °F 38% 30.09 in 10.0 mi Calm Calm - N/A   Clear
2:55 PM 17.6 °F 10.7 °F -4.0 °F 38% 30.09 in 10.0 mi East 4.6 mph - N/A   Clear
3:15 PM 17.6 °F - -2.2 °F 42% 30.09 in 10.0 mi Calm Calm - N/A   Clear
3:35 PM 19.4 °F - -0.4 °F 42% 30.08 in 10.0 mi Calm Calm - N/A   Clear
3:55 PM 19.4 °F - -0.4 °F 42% 30.08 in 10.0 mi Calm Calm - N/A   Clear
4:15 PM 17.6 °F - -0.4 °F 45% 30.08 in 10.0 mi Calm Calm - N/A   Clear
4:35 PM 19.4 °F - -0.4 °F 42% 30.08 in 10.0 mi Calm Calm - N/A   Clear
4:55 PM 19.4 °F - -0.4 °F 42% 30.08 in 10.0 mi Calm Calm - N/A   Clear
5:15 PM 19.4 °F - -0.4 °F 42% 30.08 in 10.0 mi Calm Calm - N/A   Clear
5:35 PM 19.4 °F 14.3 °F 1.4 °F 46% 30.08 in 10.0 mi South 3.5 mph - N/A   Clear
5:55 PM 19.4 °F - 1.4 °F 46% 30.08 in 10.0 mi Calm Calm - N/A   Clear
6:15 PM 19.4 °F - 1.4 °F 46% 30.08 in 10.0 mi Calm Calm - N/A   Clear
6:35 PM 19.4 °F - 1.4 °F 46% 30.08 in 10.0 mi Calm Calm - N/A   Clear
6:55 PM 19.4 °F - 1.4 °F 46% 30.09 in 10.0 mi Calm Calm - N/A   Clear
7:15 PM 19.4 °F - 1.4 °F 46% 30.09 in 10.0 mi Calm Calm - N/A   Clear
7:35 PM 17.6 °F 12.3 °F 1.4 °F 49% 30.10 in 10.0 mi South 3.5 mph - N/A   Clear
7:55 PM 15.8 °F - 1.4 °F 53% 30.09 in 10.0 mi Calm Calm - N/A   Clear
8:15 PM 10.4 °F 2.2 °F 1.4 °F 67% 30.10 in 10.0 mi SSE 4.6 mph - N/A   Clear
8:35 PM 6.8 °F -0.1 °F -0.4 °F 72% 30.09 in 10.0 mi SE 3.5 mph - N/A   Clear
8:55 PM 5.0 °F -4.1 °F -2.2 °F 72% 30.10 in 10.0 mi SSE 4.6 mph - N/A   Clear
9:15 PM 3.2 °F -7.8 °F -4.0 °F 72% 30.10 in 10.0 mi SSE 5.8 mph - N/A   Clear
9:35 PM 1.4 °F -6.2 °F -5.8 °F 72% 30.11 in 10.0 mi SSE 3.5 mph - N/A   Clear
9:55 PM 1.4 °F -9.9 °F -4.0 °F 78% 30.11 in 10.0 mi SSE 5.8 mph - N/A   Clear
10:15 PM -0.4 °F - -7.6 °F 72% 30.11 in 10.0 mi Calm Calm - N/A   Clear
10:35 PM -0.4 °F - -7.6 °F 72% 30.11 in 10.0 mi Calm Calm - N/A   Clear
10:55 PM -0.4 °F - -7.6 °F 72% 30.11 in 10.0 mi Calm Calm - N/A   Clear
11:15 PM -0.4 °F -10.4 °F -7.6 °F 72% 30.11 in 10.0 mi SSE 4.6 mph - N/A   Clear
11:35 PM -0.4 °F -8.3 °F -7.6 °F 72% 30.12 in 10.0 mi SSE 3.5 mph - N/A   Clear
11:55 PM -2.2 °F - -9.4 °F 71% 30.12 in 10.0 mi Calm Calm - N/A   Clear